NSZ3531 LMML-EKCH

Flight info

Callsign NSZ3531
Flight time 3h 25m
Altitude 36000
Route VESOD DCT INROF DCT XOLTA DCT PETOV/N0449F380 DCT ROPAG DCT LOKVU DCT ODLIV DCT HDO DCT LUROS DCT USEDU M602 PENET T298 MONAK
Aircraft B738/M-SDE2E3GHIJ1LRWXY/LB1

Departure

Time 2026-04-22 11:06
Airport Malta International Airport (LMML)

Arrival

Time 2026-04-22 14:31
Airport Copenhagen Kastrup Airport (EKCH)
Time Latitude Longitude Altitude Speed Heading
2026-04-22 10:17 35.84949 14.49337 258 ft 0 kts 359°
2026-04-22 10:53 35.84947 14.49337 258 ft 3 kts 359°
2026-04-22 10:53 35.84921 14.49339 258 ft 4 kts 349°
2026-04-22 10:54 35.84896 14.49348 258 ft 4 kts 338°
2026-04-22 10:54 35.84884 14.49354 258 ft 1 kts 338°
2026-04-22 10:54 35.84883 14.49354 258 ft 0 kts 338°
2026-04-22 10:57 35.84890 14.49349 258 ft 3 kts 323°
2026-04-22 10:58 35.84902 14.49319 258 ft 5 kts 294°
2026-04-22 10:58 35.84921 14.49281 258 ft 6 kts 304°
2026-04-22 10:58 35.84937 14.49230 257 ft 7 kts 284°
2026-04-22 10:58 35.84921 14.49175 257 ft 8 kts 225°
2026-04-22 10:59 35.84899 14.49116 258 ft 8 kts 282°
2026-04-22 10:59 35.84936 14.49055 257 ft 10 kts 311°
2026-04-22 10:59 35.84971 14.48983 258 ft 10 kts 293°
2026-04-22 10:59 35.84992 14.48895 258 ft 11 kts 284°
2026-04-22 11:00 35.85011 14.48802 259 ft 11 kts 284°
2026-04-22 11:00 35.85032 14.48714 262 ft 11 kts 287°
2026-04-22 11:00 35.85058 14.48632 265 ft 10 kts 297°
2026-04-22 11:00 35.85097 14.48560 269 ft 10 kts 308°
2026-04-22 11:01 35.85144 14.48497 271 ft 11 kts 315°
2026-04-22 11:01 35.85210 14.48417 271 ft 16 kts 316°
2026-04-22 11:01 35.85296 14.48311 271 ft 19 kts 314°
2026-04-22 11:01 35.85398 14.48180 271 ft 22 kts 314°
2026-04-22 11:02 35.85509 14.48045 271 ft 22 kts 315°
2026-04-22 11:02 35.85617 14.47913 271 ft 21 kts 314°
2026-04-22 11:02 35.85713 14.47791 272 ft 17 kts 317°
2026-04-22 11:02 35.85800 14.47692 271 ft 17 kts 316°
2026-04-22 11:03 35.85856 14.47632 271 ft 6 kts 345°
2026-04-22 11:03 35.85874 14.47674 271 ft 6 kts 71°
2026-04-22 11:03 35.85893 14.47736 272 ft 9 kts 69°
2026-04-22 11:03 35.85918 14.47820 271 ft 11 kts 69°
2026-04-22 11:04 35.85945 14.47905 274 ft 10 kts 69°
2026-04-22 11:04 35.85974 14.47986 265 ft 10 kts 63°
2026-04-22 11:04 35.86006 14.48063 265 ft 10 kts 68°
2026-04-22 11:04 35.85988 14.48120 266 ft 5 kts 157°
2026-04-22 11:05 35.85962 14.48102 264 ft 5 kts 232°
2026-04-22 11:05 35.85939 14.48065 276 ft 10 kts 233°
2026-04-22 11:05 35.85728 14.47704 271 ft 96 kts 234°
2026-04-22 11:05 35.85196 14.46784 312 ft 166 kts 236°
2026-04-22 11:06 35.84481 14.45543 998 ft 183 kts 236°
2026-04-22 11:06 35.83751 14.44282 2170 ft 180 kts 237°
2026-04-22 11:06 35.82997 14.42942 2845 ft 200 kts 237°
2026-04-22 11:06 35.82156 14.41451 3186 ft 225 kts 237°
2026-04-22 11:07 35.81220 14.39823 3542 ft 245 kts 236°
2026-04-22 11:07 35.80108 14.38129 4087 ft 261 kts 222°
2026-04-22 11:07 35.78510 14.37047 4671 ft 269 kts 196°
2026-04-22 11:07 35.76632 14.37082 4977 ft 277 kts 167°
2026-04-22 11:08 35.75234 14.37984 4989 ft 282 kts 142°
2026-04-22 11:08 35.74137 14.39863 5003 ft 282 kts 111°
2026-04-22 11:08 35.73927 14.42195 4986 ft 274 kts 79°
2026-04-22 11:08 35.74572 14.44451 5024 ft 289 kts 64°
2026-04-22 11:09 35.75461 14.46704 5011 ft 294 kts 62°
2026-04-22 11:09 35.76385 14.48947 5001 ft 293 kts 62°
2026-04-22 11:09 35.77301 14.51170 4989 ft 290 kts 62°
2026-04-22 11:09 35.78204 14.53383 5029 ft 290 kts 62°
2026-04-22 11:10 35.79114 14.55630 5499 ft 296 kts 62°
2026-04-22 11:10 35.80028 14.57905 6445 ft 296 kts 62°
2026-04-22 11:10 35.80939 14.60184 7333 ft 297 kts 62°
2026-04-22 11:10 35.81856 14.62484 8199 ft 300 kts 62°
2026-04-22 11:11 35.82779 14.64805 9049 ft 303 kts 62°
2026-04-22 11:11 35.83709 14.67149 9917 ft 306 kts 62°
2026-04-22 11:11 35.84658 14.69540 10496 ft 319 kts 61°
2026-04-22 11:11 35.85674 14.72096 10693 ft 344 kts 62°
2026-04-22 11:12 35.86746 14.74801 11212 ft 356 kts 62°
2026-04-22 11:12 35.87834 14.77557 11968 ft 359 kts 61°
2026-04-22 11:12 35.89208 14.80101 12738 ft 356 kts 40°
2026-04-22 11:12 35.91240 14.81751 13571 ft 348 kts 20°
2026-04-22 11:13 35.93537 14.82640 14302 ft 345 kts
2026-04-22 11:13 35.95930 14.82939 14970 ft 348 kts
2026-04-22 11:13 35.98356 14.83168 15628 ft 352 kts
2026-04-22 11:13 36.00810 14.83376 16305 ft 355 kts 359°
2026-04-22 11:14 36.03288 14.83577 16975 ft 359 kts 359°
2026-04-22 11:14 36.05795 14.83781 17660 ft 363 kts 359°
2026-04-22 11:14 36.08323 14.83989 18343 ft 366 kts 359°
2026-04-22 11:14 36.10874 14.84201 18929 ft 369 kts 359°
2026-04-22 11:15 36.13447 14.84416 19512 ft 372 kts 359°
2026-04-22 11:15 36.16042 14.84635 20088 ft 376 kts
2026-04-22 11:15 36.18621 14.85383 20603 ft 391 kts 20°
2026-04-22 11:15 36.20913 14.87275 21177 ft 404 kts 39°
2026-04-22 11:16 36.22665 14.90037 21740 ft 416 kts 59°
2026-04-22 11:16 36.23734 14.93406 22282 ft 423 kts 68°
2026-04-22 11:16 36.24663 14.96880 22791 ft 427 kts 69°
2026-04-22 11:16 36.25576 15.00401 23280 ft 432 kts 69°
2026-04-22 11:17 36.26496 15.03956 23748 ft 435 kts 69°
2026-04-22 11:17 36.27431 15.07531 24210 ft 437 kts 69°
2026-04-22 11:17 36.28380 15.11119 24688 ft 438 kts 69°
2026-04-22 11:17 36.29338 15.14711 25139 ft 440 kts 69°
2026-04-22 11:18 36.30306 15.18325 25549 ft 443 kts 68°
2026-04-22 11:18 36.31283 15.21967 25949 ft 447 kts 68°
2026-04-22 11:18 36.32267 15.25632 26351 ft 449 kts 68°
2026-04-22 11:18 36.33254 15.29316 26751 ft 452 kts 68°
2026-04-22 11:19 36.34247 15.33027 27151 ft 454 kts 68°
2026-04-22 11:19 36.35242 15.36754 27533 ft 457 kts 68°
2026-04-22 11:19 36.36242 15.40505 27907 ft 459 kts 68°
2026-04-22 11:19 36.37246 15.44277 28272 ft 462 kts 68°
2026-04-22 11:20 36.38254 15.48071 28623 ft 464 kts 68°
2026-04-22 11:20 36.39267 15.51888 28981 ft 467 kts 68°
2026-04-22 11:20 36.40284 15.55724 29330 ft 469 kts 68°
2026-04-22 11:20 36.41305 15.59584 29663 ft 472 kts 68°
2026-04-22 11:21 36.42329 15.63462 29999 ft 474 kts 68°
2026-04-22 11:21 36.43357 15.67359 30294 ft 476 kts 68°
2026-04-22 11:21 36.44389 15.71278 30556 ft 478 kts 68°
2026-04-22 11:21 36.45424 15.75213 30814 ft 481 kts 68°
2026-04-22 11:22 36.46462 15.79169 31059 ft 483 kts 68°
2026-04-22 11:22 36.47505 15.83145 31300 ft 485 kts 68°
2026-04-22 11:22 36.48548 15.87129 31620 ft 485 kts 68°
2026-04-22 11:22 36.49600 15.91097 31985 ft 482 kts 65°
2026-04-22 11:23 36.51086 15.94718 32261 ft 472 kts 48°
2026-04-22 11:23 36.53140 15.97872 32610 ft 468 kts 45°
2026-04-22 11:23 36.55220 16.00982 32939 ft 468 kts 45°
2026-04-22 11:23 36.57295 16.04103 33245 ft 469 kts 45°
2026-04-22 11:24 36.59359 16.07243 33552 ft 468 kts 45°
2026-04-22 11:24 36.61407 16.10394 33910 ft 468 kts 45°
2026-04-22 11:24 36.63440 16.13546 34270 ft 465 kts 46°
2026-04-22 11:24 36.65457 16.16689 34586 ft 464 kts 46°
2026-04-22 11:25 36.67470 16.19832 34784 ft 465 kts 46°
2026-04-22 11:25 36.69492 16.22989 34976 ft 467 kts 46°
2026-04-22 11:25 36.71515 16.26153 35225 ft 466 kts 46°
2026-04-22 11:25 36.73534 16.29311 35489 ft 466 kts 45°
2026-04-22 11:26 36.75553 16.32473 35712 ft 466 kts 45°
2026-04-22 11:26 36.77571 16.35635 35922 ft 467 kts 45°
2026-04-22 11:26 36.79591 16.38801 36135 ft 467 kts 45°
2026-04-22 11:26 36.81610 16.41971 36400 ft 466 kts 46°
2026-04-22 11:27 36.82976 16.44117 36602 ft 465 kts 45°
2026-04-22 11:27 36.84983 16.47275 36877 ft 464 kts 45°
2026-04-22 11:27 36.86967 16.50396 37045 ft 465 kts 45°
2026-04-22 11:27 36.88978 16.53562 37230 ft 466 kts 45°
2026-04-22 11:28 36.90987 16.56730 37439 ft 465 kts 45°
2026-04-22 11:28 36.93024 16.59944 37655 ft 465 kts 45°
2026-04-22 11:28 36.95031 16.63116 37848 ft 465 kts 45°
2026-04-22 11:28 36.97008 16.66242 37988 ft 466 kts 45°
2026-04-22 11:29 36.99025 16.69433 37978 ft 469 kts 45°
2026-04-22 11:29 37.03136 16.75751 37970 ft 462 kts 36°
2026-04-22 11:29 37.05701 16.77964 38011 ft 439 kts 17°
2026-04-22 11:30 37.08536 16.79178 37995 ft 427 kts
2026-04-22 11:30 37.11441 16.79589 37996 ft 416 kts 352°
2026-04-22 11:30 37.14308 16.79247 38014 ft 411 kts 346°
2026-04-22 11:31 37.19984 16.78212 38003 ft 414 kts 345°
2026-04-22 11:31 37.25699 16.77142 37994 ft 417 kts 345°
2026-04-22 11:32 37.31454 16.76107 37994 ft 419 kts 346°
2026-04-22 11:32 37.37228 16.75094 37995 ft 419 kts 346°
2026-04-22 11:33 37.43002 16.74089 37994 ft 418 kts 346°
2026-04-22 11:33 37.48760 16.73087 37999 ft 417 kts 346°
2026-04-22 11:34 37.54499 16.72086 37995 ft 415 kts 346°
2026-04-22 11:34 37.60205 16.71088 37995 ft 413 kts 346°
2026-04-22 11:35 37.65879 16.70094 38005 ft 411 kts 346°
2026-04-22 11:35 37.71533 16.69101 38015 ft 409 kts 346°
2026-04-22 11:36 37.77164 16.68110 38003 ft 408 kts 346°
2026-04-22 11:36 37.82780 16.67121 38006 ft 407 kts 346°
2026-04-22 11:37 37.88394 16.66130 38006 ft 407 kts 346°
2026-04-22 11:37 37.94012 16.65137 38038 ft 408 kts 346°
2026-04-22 11:38 37.99648 16.64139 38014 ft 409 kts 346°
2026-04-22 11:38 38.08131 16.62635 38012 ft 411 kts 346°
2026-04-22 11:39 38.13759 16.61636 38014 ft 412 kts 346°
2026-04-22 11:39 38.19438 16.60626 38018 ft 413 kts 346°
2026-04-22 11:40 38.25130 16.59612 38011 ft 413 kts 346°
2026-04-22 11:40 38.30823 16.58596 38014 ft 413 kts 346°
2026-04-22 11:41 38.36511 16.57580 38010 ft 413 kts 346°
2026-04-22 11:41 38.42197 16.56562 38023 ft 413 kts 346°
2026-04-22 11:42 38.47879 16.55544 38016 ft 412 kts 346°
2026-04-22 11:42 38.53558 16.54524 38020 ft 412 kts 346°
2026-04-22 11:43 38.59231 16.53504 38030 ft 412 kts 346°
2026-04-22 11:43 38.64899 16.52483 38027 ft 411 kts 346°
2026-04-22 11:44 38.70561 16.51461 38014 ft 411 kts 346°
2026-04-22 11:44 38.76213 16.50440 38004 ft 410 kts 346°
2026-04-22 11:45 38.81860 16.49417 38000 ft 410 kts 346°
2026-04-22 11:45 38.87511 16.48393 38000 ft 410 kts 345°
2026-04-22 11:46 38.93163 16.47366 37989 ft 411 kts 345°
2026-04-22 11:46 38.98818 16.46337 37992 ft 410 kts 346°
2026-04-22 11:47 39.04454 16.45311 38009 ft 409 kts 345°
2026-04-22 11:47 39.10088 16.44284 38025 ft 408 kts 345°
2026-04-22 11:48 39.15718 16.43254 38030 ft 409 kts 345°
2026-04-22 11:48 39.21353 16.42222 38037 ft 409 kts 345°
2026-04-22 11:49 39.26989 16.41189 38045 ft 409 kts 345°
2026-04-22 11:49 39.32620 16.40154 38062 ft 409 kts 345°
2026-04-22 11:50 39.38245 16.39121 38055 ft 408 kts 345°
2026-04-22 11:50 39.43854 16.38087 38047 ft 406 kts 345°
2026-04-22 11:51 39.49439 16.37058 38027 ft 405 kts 345°
2026-04-22 11:51 39.55001 16.36030 38040 ft 403 kts 345°
2026-04-22 11:52 39.60543 16.35003 38025 ft 402 kts 345°
2026-04-22 11:52 39.66063 16.33980 38025 ft 400 kts 345°
2026-04-22 11:53 39.71565 16.32957 38036 ft 399 kts 345°
2026-04-22 11:53 39.77068 16.31932 38036 ft 400 kts 344°
2026-04-22 11:54 39.82545 16.30910 38040 ft 401 kts 344°
2026-04-22 11:54 39.88079 16.29876 38017 ft 402 kts 344°
2026-04-22 11:55 39.93630 16.28839 38012 ft 404 kts 344°
2026-04-22 11:55 39.99194 16.27797 38041 ft 404 kts 344°
2026-04-22 11:56 40.04760 16.26753 38030 ft 404 kts 344°
2026-04-22 11:56 40.10344 16.25703 38023 ft 406 kts 344°
2026-04-22 11:57 40.15940 16.24650 38019 ft 406 kts 344°
2026-04-22 11:57 40.21528 16.23599 38038 ft 405 kts 343°
2026-04-22 11:58 40.27113 16.22545 38027 ft 405 kts 343°
2026-04-22 11:58 40.32643 16.21499 38029 ft 404 kts 343°
2026-04-22 11:59 40.38197 16.20447 38011 ft 402 kts 343°
2026-04-22 11:59 40.43707 16.19404 38048 ft 400 kts 343°
2026-04-22 12:00 40.49223 16.18352 38030 ft 400 kts 343°
2026-04-22 12:00 40.54731 16.17303 38038 ft 399 kts 343°
2026-04-22 12:01 40.60223 16.16257 38051 ft 399 kts 343°
2026-04-22 12:01 40.65708 16.15208 38061 ft 399 kts 343°
2026-04-22 12:02 40.71211 16.14154 38040 ft 400 kts 343°
2026-04-22 12:02 40.76724 16.13096 38059 ft 401 kts 343°
2026-04-22 12:03 40.82250 16.12035 38062 ft 402 kts 343°
2026-04-22 12:03 40.87749 16.10977 38067 ft 403 kts 343°
2026-04-22 12:04 40.93316 16.09905 38059 ft 405 kts 343°
2026-04-22 12:04 40.98888 16.08830 38067 ft 405 kts 343°
2026-04-22 12:05 41.04466 16.07753 38052 ft 405 kts 343°
2026-04-22 12:05 41.10047 16.06672 38055 ft 405 kts 343°
2026-04-22 12:06 41.15623 16.05592 38061 ft 405 kts 342°
2026-04-22 12:06 41.21203 16.04507 38054 ft 406 kts 343°
2026-04-22 12:07 41.26783 16.03421 38064 ft 405 kts 343°
2026-04-22 12:07 41.32361 16.02333 38061 ft 405 kts 342°
2026-04-22 12:08 41.37940 16.01244 38056 ft 405 kts 342°
2026-04-22 12:08 41.43498 16.00158 38065 ft 403 kts 342°
2026-04-22 12:09 41.49048 15.99070 38098 ft 403 kts 343°
2026-04-22 12:09 41.54595 15.97981 38074 ft 402 kts 343°
2026-04-22 12:10 41.60101 15.96897 38075 ft 403 kts 343°
2026-04-22 12:10 41.65652 15.95803 38081 ft 404 kts 343°
2026-04-22 12:11 41.71260 15.94694 38067 ft 405 kts 343°
2026-04-22 12:11 41.76794 15.93602 38055 ft 405 kts 343°
2026-04-22 12:12 41.82365 15.92499 38059 ft 405 kts 343°
2026-04-22 12:12 41.87950 15.91390 38052 ft 406 kts 343°
2026-04-22 12:13 41.93544 15.90278 38057 ft 407 kts 343°
2026-04-22 12:13 41.99140 15.89165 38053 ft 406 kts 343°
2026-04-22 12:14 42.04735 15.88049 38055 ft 406 kts 343°
2026-04-22 12:14 42.10324 15.86933 38062 ft 406 kts 343°
2026-04-22 12:15 42.14967 15.86004 38073 ft 406 kts 343°
2026-04-22 12:15 42.20557 15.84883 38084 ft 406 kts 343°
2026-04-22 12:16 42.26141 15.83762 38083 ft 406 kts 343°
2026-04-22 12:16 42.31726 15.82638 38082 ft 405 kts 343°
2026-04-22 12:17 42.37308 15.81512 38082 ft 406 kts 343°
2026-04-22 12:17 42.42893 15.80385 38078 ft 406 kts 343°
2026-04-22 12:18 42.48483 15.79254 38074 ft 406 kts 343°
2026-04-22 12:18 42.54069 15.78122 38106 ft 406 kts 344°
2026-04-22 12:19 42.59661 15.76987 38086 ft 406 kts 344°
2026-04-22 12:19 42.65258 15.75848 38079 ft 407 kts 344°
2026-04-22 12:20 42.70882 15.74825 38083 ft 412 kts 350°
2026-04-22 12:20 42.76680 15.75074 38077 ft 419 kts 355°
2026-04-22 12:21 42.82508 15.75477 38076 ft 420 kts 355°
2026-04-22 12:21 42.88346 15.75859 38088 ft 420 kts 355°
2026-04-22 12:22 42.94190 15.76219 38104 ft 421 kts 355°
2026-04-22 12:22 43.00047 15.76571 38084 ft 422 kts 355°
2026-04-22 12:23 43.05917 15.76924 38078 ft 422 kts 355°
2026-04-22 12:23 43.11788 15.77277 38080 ft 423 kts 355°
2026-04-22 12:24 43.17670 15.77631 38087 ft 423 kts 356°
2026-04-22 12:24 43.23557 15.77988 38076 ft 424 kts 356°
2026-04-22 12:25 43.29445 15.78345 38072 ft 423 kts 356°
2026-04-22 12:25 43.35289 15.78699 38065 ft 423 kts 356°
2026-04-22 12:26 43.41173 15.79057 38064 ft 423 kts 356°
2026-04-22 12:26 43.47053 15.79416 38060 ft 423 kts 356°
2026-04-22 12:27 43.52929 15.79774 38074 ft 423 kts 356°
2026-04-22 12:27 43.58807 15.80133 38062 ft 423 kts 356°
2026-04-22 12:28 43.64686 15.80493 38056 ft 423 kts 356°
2026-04-22 12:28 43.70564 15.80854 38061 ft 423 kts 356°
2026-04-22 12:29 43.76445 15.81216 38059 ft 423 kts 356°
2026-04-22 12:29 43.82326 15.81579 38062 ft 423 kts 356°
2026-04-22 12:30 43.91155 15.82123 38077 ft 424 kts 357°
2026-04-22 12:31 43.97056 15.82489 38073 ft 425 kts 357°
2026-04-22 12:31 44.02959 15.82856 38078 ft 425 kts 357°
2026-04-22 12:32 44.08873 15.83223 38095 ft 425 kts 357°
2026-04-22 12:32 44.17757 15.83777 38088 ft 427 kts 358°
2026-04-22 12:33 44.23687 15.84148 38093 ft 427 kts 358°
2026-04-22 12:33 44.29614 15.84519 38120 ft 426 kts 358°
2026-04-22 12:34 44.35545 15.84891 38118 ft 427 kts 358°
2026-04-22 12:34 44.41485 15.85265 38123 ft 428 kts 358°
2026-04-22 12:35 44.47435 15.85640 38146 ft 428 kts 358°
2026-04-22 12:35 44.53352 15.86013 38149 ft 429 kts 358°
2026-04-22 12:36 44.59314 15.86391 38149 ft 429 kts 358°
2026-04-22 12:36 44.65283 15.86769 38146 ft 429 kts 358°
2026-04-22 12:37 44.71252 15.87149 38151 ft 429 kts 359°
2026-04-22 12:37 44.77203 15.87528 38160 ft 428 kts 359°
2026-04-22 12:38 44.83146 15.87908 38170 ft 427 kts 359°
2026-04-22 12:38 44.89081 15.88287 38178 ft 426 kts 359°
2026-04-22 12:39 44.97958 15.88856 38176 ft 426 kts 359°
2026-04-22 12:40 45.03868 15.89236 38176 ft 425 kts 359°
2026-04-22 12:40 45.09771 15.89615 38193 ft 424 kts 359°
2026-04-22 12:41 45.15668 15.89996 38181 ft 424 kts 359°
2026-04-22 12:41 45.21520 15.90374 38196 ft 424 kts 359°
2026-04-22 12:42 45.27409 15.90755 38207 ft 424 kts 359°
2026-04-22 12:42 45.33303 15.91138 38201 ft 424 kts 359°
2026-04-22 12:43 45.39203 15.91522 38207 ft 424 kts 359°
2026-04-22 12:43 45.45106 15.91906 38216 ft 425 kts 359°
2026-04-22 12:44 45.51018 15.92292 38202 ft 426 kts 360°
2026-04-22 12:44 45.56942 15.92680 38202 ft 426 kts 360°
2026-04-22 12:45 45.62871 15.93070 38205 ft 427 kts 360°
2026-04-22 12:45 45.68803 15.93460 38206 ft 427 kts 360°
2026-04-22 12:46 45.74737 15.93851 38210 ft 427 kts 360°
2026-04-22 12:46 45.80671 15.94242 38213 ft 427 kts 360°
2026-04-22 12:47 45.86603 15.94635 38216 ft 427 kts
2026-04-22 12:47 45.92536 15.95029 38212 ft 426 kts
2026-04-22 12:48 45.98463 15.95422 38208 ft 426 kts
2026-04-22 12:48 46.04390 15.95817 38206 ft 426 kts
2026-04-22 12:49 46.10314 15.96212 38211 ft 426 kts
2026-04-22 12:49 46.16236 15.96609 38207 ft 426 kts
2026-04-22 12:50 46.22148 15.97005 38204 ft 425 kts
2026-04-22 12:50 46.28053 15.97402 38201 ft 425 kts
2026-04-22 12:51 46.33936 15.97185 38216 ft 422 kts 351°
2026-04-22 12:51 46.39747 15.96017 38206 ft 421 kts 350°
2026-04-22 12:52 46.45550 15.94824 38200 ft 421 kts 351°
2026-04-22 12:52 46.51314 15.93679 38208 ft 421 kts 351°
2026-04-22 12:53 46.57128 15.92545 38214 ft 421 kts 351°
2026-04-22 12:53 46.62939 15.91415 38210 ft 421 kts 351°
2026-04-22 12:54 46.68753 15.90282 38203 ft 422 kts 351°
2026-04-22 12:54 46.74573 15.89145 38207 ft 422 kts 351°
2026-04-22 12:55 46.79414 15.88197 38199 ft 423 kts 351°
2026-04-22 12:55 46.86227 15.86860 38202 ft 423 kts 351°
2026-04-22 12:56 46.92059 15.85712 38207 ft 423 kts 352°
2026-04-22 12:56 46.97906 15.84559 38203 ft 424 kts 352°
2026-04-22 12:57 47.03760 15.83403 38202 ft 425 kts 352°
2026-04-22 12:57 47.09620 15.82242 38204 ft 425 kts 352°
2026-04-22 12:58 47.15489 15.81076 38198 ft 426 kts 352°
2026-04-22 12:58 47.21364 15.79934 38183 ft 426 kts 354°
2026-04-22 12:59 47.27292 15.79828 38197 ft 427 kts
2026-04-22 12:59 47.33232 15.80054 38199 ft 427 kts
2026-04-22 13:00 47.39178 15.80252 38205 ft 428 kts
2026-04-22 13:00 47.45126 15.80401 38200 ft 428 kts
2026-04-22 13:01 47.51074 15.80530 38211 ft 427 kts
2026-04-22 13:01 47.56012 15.80634 38201 ft 427 kts
2026-04-22 13:02 47.62955 15.80780 38197 ft 427 kts
2026-04-22 13:02 47.67885 15.80885 38204 ft 426 kts
2026-04-22 13:03 47.73809 15.81012 38200 ft 426 kts
2026-04-22 13:03 47.79731 15.81139 38210 ft 425 kts
2026-04-22 13:04 47.85650 15.81266 38191 ft 425 kts
2026-04-22 13:04 47.91567 15.81393 38194 ft 425 kts
2026-04-22 13:05 47.97473 15.81521 38217 ft 424 kts
2026-04-22 13:05 48.03340 15.81648 38209 ft 424 kts
2026-04-22 13:06 48.09240 15.81776 38209 ft 424 kts
2026-04-22 13:06 48.15133 15.81904 38221 ft 424 kts
2026-04-22 13:07 48.21032 15.82032 38223 ft 424 kts
2026-04-22 13:07 48.26934 15.82161 38212 ft 424 kts
2026-04-22 13:08 48.32847 15.82291 38217 ft 425 kts
2026-04-22 13:08 48.38765 15.82420 38221 ft 426 kts
2026-04-22 13:09 48.44696 15.82551 38211 ft 427 kts
2026-04-22 13:09 48.50636 15.82682 38223 ft 427 kts
2026-04-22 13:10 48.56587 15.82813 38215 ft 428 kts
2026-04-22 13:10 48.62550 15.82945 38213 ft 429 kts
2026-04-22 13:11 48.68520 15.83078 38209 ft 429 kts
2026-04-22 13:11 48.74490 15.83210 38209 ft 429 kts
2026-04-22 13:12 48.80463 15.83343 38209 ft 429 kts
2026-04-22 13:12 48.86432 15.83238 38197 ft 430 kts 354°
2026-04-22 13:13 48.92215 15.80945 38214 ft 432 kts 341°
2026-04-22 13:13 48.97775 15.77644 38211 ft 432 kts 340°
2026-04-22 13:14 49.03368 15.74291 38212 ft 432 kts 341°
2026-04-22 13:14 49.08968 15.70973 38219 ft 432 kts 341°
2026-04-22 13:15 49.14576 15.67673 38220 ft 432 kts 341°
2026-04-22 13:15 49.20181 15.64373 38214 ft 431 kts 341°
2026-04-22 13:16 49.25778 15.61071 38225 ft 431 kts 341°
2026-04-22 13:16 49.31377 15.57759 38227 ft 431 kts 341°
2026-04-22 13:17 49.36968 15.54443 38233 ft 431 kts 341°
2026-04-22 13:17 49.42566 15.51115 38234 ft 432 kts 341°
2026-04-22 13:18 49.48167 15.47777 38232 ft 432 kts 341°
2026-04-22 13:18 49.53765 15.44431 38241 ft 432 kts 341°
2026-04-22 13:19 49.59367 15.41076 38231 ft 432 kts 341°
2026-04-22 13:19 49.64966 15.37714 38230 ft 432 kts 341°
2026-04-22 13:20 49.70571 15.34340 38235 ft 432 kts 341°
2026-04-22 13:20 49.76176 15.30958 38248 ft 433 kts 341°
2026-04-22 13:21 49.81787 15.27563 38247 ft 433 kts 341°
2026-04-22 13:21 49.87407 15.24155 38248 ft 434 kts 341°
2026-04-22 13:22 49.93037 15.20732 38243 ft 435 kts 341°
2026-04-22 13:22 49.98667 15.17300 38233 ft 435 kts 341°
2026-04-22 13:23 50.04292 15.13862 38247 ft 434 kts 341°
2026-04-22 13:23 50.09878 15.10440 38246 ft 434 kts 341°
2026-04-22 13:24 50.15493 15.06991 38251 ft 433 kts 341°
2026-04-22 13:24 50.21098 15.03540 38249 ft 433 kts 341°
2026-04-22 13:25 50.26699 15.00082 38253 ft 433 kts 341°
2026-04-22 13:25 50.32294 14.96620 38257 ft 432 kts 341°
2026-04-22 13:26 50.37882 14.93152 38237 ft 432 kts 341°
2026-04-22 13:26 50.43462 14.89681 38251 ft 431 kts 341°
2026-04-22 13:27 50.48989 14.85977 38239 ft 434 kts 333°
2026-04-22 13:27 50.53992 14.80590 38263 ft 437 kts 327°
2026-04-22 13:28 50.58922 14.74990 38270 ft 437 kts 327°
2026-04-22 13:28 50.63877 14.69416 38278 ft 438 kts 328°
2026-04-22 13:29 50.68847 14.63859 38274 ft 438 kts 328°
2026-04-22 13:29 50.73823 14.58290 38269 ft 439 kts 328°
2026-04-22 13:30 50.78804 14.52699 38282 ft 439 kts 328°
2026-04-22 13:30 50.83787 14.47088 38279 ft 440 kts 328°
2026-04-22 13:31 50.88771 14.41463 38284 ft 440 kts 328°
2026-04-22 13:31 50.94151 14.37074 38285 ft 433 kts 345°
2026-04-22 13:32 51.00007 14.35294 38292 ft 428 kts 356°
2026-04-22 13:32 51.05931 14.34215 38287 ft 429 kts 356°
2026-04-22 13:33 51.11863 14.33112 38273 ft 430 kts 355°
2026-04-22 13:33 51.17802 14.31956 38277 ft 430 kts 355°
2026-04-22 13:34 51.23747 14.30775 38285 ft 431 kts 355°
2026-04-22 13:34 51.29698 14.29586 38285 ft 431 kts 355°
2026-04-22 13:35 51.35655 14.28394 38285 ft 432 kts 355°
2026-04-22 13:35 51.41619 14.27197 38278 ft 432 kts 356°
2026-04-22 13:36 51.47581 14.25999 38282 ft 432 kts 356°
2026-04-22 13:36 51.53548 14.24796 38276 ft 432 kts 356°
2026-04-22 13:37 51.59510 14.23591 38277 ft 432 kts 356°
2026-04-22 13:37 51.65469 14.22384 38281 ft 431 kts 356°
2026-04-22 13:38 51.71416 14.21175 38273 ft 431 kts 356°
2026-04-22 13:38 51.80326 14.19359 38277 ft 430 kts 356°
2026-04-22 13:39 51.86255 14.18147 38270 ft 429 kts 356°
2026-04-22 13:39 51.92147 14.17060 38266 ft 428 kts 359°
2026-04-22 13:40 51.98072 14.16474 38272 ft 426 kts
2026-04-22 13:40 52.03998 14.15985 38268 ft 426 kts
2026-04-22 13:41 52.09921 14.15456 38269 ft 426 kts
2026-04-22 13:41 52.15843 14.14893 38254 ft 426 kts
2026-04-22 13:42 52.21759 14.14317 38265 ft 426 kts
2026-04-22 13:42 52.27677 14.13739 38263 ft 426 kts
2026-04-22 13:43 52.33591 14.13159 38263 ft 426 kts
2026-04-22 13:43 52.39511 14.12578 38261 ft 426 kts
2026-04-22 13:44 52.45425 14.11995 38257 ft 426 kts
2026-04-22 13:44 52.51335 14.11412 38257 ft 426 kts
2026-04-22 13:45 52.57253 14.10827 38241 ft 426 kts
2026-04-22 13:45 52.63166 14.10240 38254 ft 426 kts
2026-04-22 13:46 52.69083 14.09651 38262 ft 426 kts
2026-04-22 13:46 52.75009 14.09060 38258 ft 427 kts
2026-04-22 13:47 52.80944 14.08467 38252 ft 428 kts
2026-04-22 13:47 52.86884 14.07871 38259 ft 428 kts
2026-04-22 13:48 52.91822 14.07374 38245 ft 428 kts
2026-04-22 13:48 52.98728 14.06678 38265 ft 428 kts
2026-04-22 13:49 53.04666 14.06077 38257 ft 428 kts
2026-04-22 13:49 53.10602 14.05475 38258 ft 427 kts
2026-04-22 13:50 53.15537 14.04973 38254 ft 427 kts
2026-04-22 13:50 53.21465 14.04368 38257 ft 427 kts
2026-04-22 13:51 53.27390 14.03763 38261 ft 426 kts
2026-04-22 13:51 53.33307 14.03156 38261 ft 426 kts
2026-04-22 13:52 53.39219 14.02548 38262 ft 425 kts
2026-04-22 13:52 53.45119 14.01940 38270 ft 424 kts
2026-04-22 13:53 53.51009 14.01331 38254 ft 424 kts
2026-04-22 13:53 53.56895 14.00722 38260 ft 424 kts
2026-04-22 13:54 53.62778 14.00111 38265 ft 423 kts
2026-04-22 13:54 53.68661 13.99497 38249 ft 423 kts
2026-04-22 13:55 53.71621 13.99190 37817 ft 429 kts
2026-04-22 13:55 53.74587 13.98879 37330 ft 426 kts
2026-04-22 13:55 53.77534 13.98568 36818 ft 423 kts
2026-04-22 13:55 53.80464 13.98259 36387 ft 419 kts
2026-04-22 13:56 53.83360 13.97954 35987 ft 415 kts
2026-04-22 13:56 53.86232 13.97652 35576 ft 412 kts
2026-04-22 13:56 53.89080 13.97352 35168 ft 408 kts
2026-04-22 13:56 53.91905 13.97007 34757 ft 408 kts 359°
2026-04-22 13:57 53.94689 13.95779 34300 ft 420 kts 345°
2026-04-22 13:57 53.97298 13.93443 33859 ft 430 kts 333°
2026-04-22 13:57 53.99602 13.90130 33385 ft 436 kts 323°
2026-04-22 13:57 54.01761 13.86532 33004 ft 433 kts 321°
2026-04-22 13:58 54.03882 13.82935 32631 ft 429 kts 321°
2026-04-22 13:58 54.05999 13.79406 32249 ft 424 kts 322°
2026-04-22 13:58 54.08117 13.75942 31878 ft 420 kts 322°
2026-04-22 13:58 54.10194 13.72570 31517 ft 416 kts 321°
2026-04-22 13:59 54.12303 13.69128 31152 ft 413 kts 321°
2026-04-22 13:59 54.14360 13.65746 30814 ft 409 kts 321°
2026-04-22 13:59 54.16396 13.62392 30472 ft 405 kts 320°
2026-04-22 13:59 54.18388 13.59107 30092 ft 402 kts 320°
2026-04-22 14:00 54.20391 13.55812 29666 ft 398 kts 320°
2026-04-22 14:00 54.22390 13.52568 29223 ft 395 kts 321°
2026-04-22 14:00 54.24378 13.49357 28782 ft 392 kts 321°
2026-04-22 14:00 54.26353 13.46164 28344 ft 389 kts 321°
2026-04-22 14:01 54.28311 13.42989 27908 ft 387 kts 320°
2026-04-22 14:01 54.30258 13.39822 27493 ft 384 kts 320°
2026-04-22 14:01 54.32186 13.36679 27096 ft 381 kts 320°
2026-04-22 14:01 54.34096 13.33548 26713 ft 379 kts 319°
2026-04-22 14:02 54.35984 13.30428 26337 ft 376 kts 319°
2026-04-22 14:02 54.37856 13.27326 25966 ft 373 kts 319°
2026-04-22 14:02 54.39716 13.24242 25599 ft 370 kts 319°
2026-04-22 14:02 54.41560 13.21182 25231 ft 368 kts 319°
2026-04-22 14:03 54.43396 13.18133 24843 ft 366 kts 318°
2026-04-22 14:03 54.45220 13.15102 24486 ft 364 kts 318°
2026-04-22 14:03 54.47029 13.12089 24168 ft 360 kts 318°
2026-04-22 14:03 54.48817 13.09101 23851 ft 357 kts 317°
2026-04-22 14:04 54.50591 13.06132 23428 ft 355 kts 318°
2026-04-22 14:04 54.52353 13.03177 23015 ft 353 kts 318°
2026-04-22 14:04 54.54107 13.00233 22643 ft 350 kts 318°
2026-04-22 14:04 54.55842 12.97318 22252 ft 348 kts 318°
2026-04-22 14:05 54.57577 12.94401 21759 ft 349 kts 318°
2026-04-22 14:05 54.59304 12.91493 21388 ft 346 kts 318°
2026-04-22 14:05 54.62714 12.85739 20669 ft 340 kts 318°
2026-04-22 14:06 54.64397 12.82894 20324 ft 337 kts 318°
2026-04-22 14:06 54.66067 12.80069 19988 ft 335 kts 318°
2026-04-22 14:06 54.67721 12.77268 19652 ft 332 kts 318°
2026-04-22 14:06 54.69365 12.74479 19308 ft 330 kts 318°
2026-04-22 14:07 54.70996 12.71709 18967 ft 327 kts 318°
2026-04-22 14:07 54.72607 12.68973 18731 ft 322 kts 319°
2026-04-22 14:07 54.74199 12.66270 18382 ft 320 kts 319°
2026-04-22 14:07 54.75781 12.63582 18036 ft 317 kts 319°
2026-04-22 14:08 54.77349 12.60912 17705 ft 314 kts 319°
2026-04-22 14:08 54.78900 12.58268 17393 ft 311 kts 319°
2026-04-22 14:08 54.80415 12.55689 17073 ft 308 kts 319°
2026-04-22 14:08 54.81938 12.53094 16751 ft 305 kts 319°
2026-04-22 14:09 54.83447 12.50518 16420 ft 303 kts 319°
2026-04-22 14:09 54.84945 12.47961 16103 ft 301 kts 319°
2026-04-22 14:09 54.86434 12.45415 15797 ft 299 kts 319°
2026-04-22 14:09 54.87912 12.42887 15486 ft 297 kts 319°
2026-04-22 14:10 54.89379 12.40373 15179 ft 295 kts 319°
2026-04-22 14:10 54.90836 12.37872 14876 ft 293 kts 319°
2026-04-22 14:10 54.92304 12.35431 14569 ft 290 kts 326°
2026-04-22 14:10 54.94077 12.33961 14264 ft 280 kts 352°
2026-04-22 14:11 54.95986 12.33937 13971 ft 273 kts 12°
2026-04-22 14:11 54.97753 12.35058 13646 ft 270 kts 31°
2026-04-22 14:11 54.99331 12.36849 13157 ft 275 kts 33°
2026-04-22 14:11 55.00901 12.38735 12827 ft 273 kts 33°
2026-04-22 14:12 55.02472 12.40597 12490 ft 273 kts 33°
2026-04-22 14:12 55.04044 12.42443 12167 ft 271 kts 32°
2026-04-22 14:12 55.05605 12.44272 11858 ft 270 kts 32°
2026-04-22 14:12 55.07157 12.46089 11550 ft 268 kts 32°
2026-04-22 14:13 55.08699 12.47895 11253 ft 266 kts 32°
2026-04-22 14:13 55.10230 12.49690 10952 ft 265 kts 32°
2026-04-22 14:13 55.11754 12.51477 10656 ft 263 kts 32°
2026-04-22 14:13 55.13270 12.53256 10359 ft 262 kts 32°
2026-04-22 14:14 55.14775 12.55024 10169 ft 257 kts 32°
2026-04-22 14:14 55.16232 12.56738 10039 ft 249 kts 32°
2026-04-22 14:14 55.17662 12.58420 9760 ft 247 kts 31°
2026-04-22 14:14 55.19081 12.60089 9509 ft 245 kts 31°
2026-04-22 14:15 55.20488 12.61747 9233 ft 243 kts 31°
2026-04-22 14:15 55.21886 12.63396 8967 ft 241 kts 31°
2026-04-22 14:15 55.23276 12.65028 8693 ft 239 kts 30°
2026-04-22 14:15 55.24705 12.66472 8490 ft 236 kts 26°
2026-04-22 14:16 55.26161 12.67848 8236 ft 241 kts 26°
2026-04-22 14:16 55.27636 12.69245 7969 ft 248 kts 26°
2026-04-22 14:16 55.29175 12.70719 7685 ft 249 kts 26°
2026-04-22 14:16 55.30668 12.72159 7414 ft 247 kts 26°
2026-04-22 14:17 55.32170 12.73610 7129 ft 246 kts 26°
2026-04-22 14:17 55.33719 12.74810 6845 ft 242 kts
2026-04-22 14:17 55.35371 12.74629 6545 ft 240 kts 342°
2026-04-22 14:17 55.36843 12.73274 6239 ft 241 kts 322°
2026-04-22 14:18 55.37989 12.71115 5957 ft 242 kts 311°
2026-04-22 14:18 55.39024 12.68792 5676 ft 241 kts 310°
2026-04-22 14:18 55.40048 12.66470 5405 ft 239 kts 310°
2026-04-22 14:18 55.41071 12.64168 5129 ft 238 kts 311°
2026-04-22 14:19 55.42064 12.61850 4845 ft 238 kts 303°
2026-04-22 14:19 55.42516 12.59038 4539 ft 245 kts 274°
2026-04-22 14:19 55.42138 12.56084 4249 ft 253 kts 248°
2026-04-22 14:19 55.41043 12.53617 3969 ft 259 kts 227°
2026-04-22 14:20 55.38320 12.49466 3440 ft 258 kts 225°
2026-04-22 14:20 55.36953 12.47443 3183 ft 257 kts 223°
2026-04-22 14:20 55.35530 12.45587 3051 ft 251 kts 220°
2026-04-22 14:21 55.32789 12.42190 2994 ft 231 kts 220°
2026-04-22 14:21 55.31512 12.40619 3011 ft 215 kts 225°
2026-04-22 14:22 55.30770 12.36420 2993 ft 173 kts 300°
2026-04-22 14:22 55.31439 12.34743 3009 ft 167 kts 310°
2026-04-22 14:22 55.32848 12.31716 2992 ft 150 kts 334°
2026-04-22 14:23 55.33847 12.31710 3022 ft 149 kts 12°
2026-04-22 14:23 55.34860 12.32206 3024 ft 152 kts 10°
2026-04-22 14:23 55.35891 12.32687 3021 ft 155 kts
2026-04-22 14:23 55.36932 12.33173 3009 ft 155 kts
2026-04-22 14:24 55.37962 12.33656 2988 ft 150 kts
2026-04-22 14:24 55.38951 12.34120 2992 ft 146 kts
2026-04-22 14:24 55.39938 12.34574 3012 ft 147 kts
2026-04-22 14:24 55.40936 12.35036 3004 ft 149 kts
2026-04-22 14:25 55.41944 12.35503 3015 ft 151 kts
2026-04-22 14:25 55.42968 12.35977 3015 ft 154 kts 10°
2026-04-22 14:25 55.43930 12.36883 3013 ft 161 kts 32°
2026-04-22 14:25 55.44815 12.38115 3008 ft 163 kts 32°
2026-04-22 14:26 55.45682 12.39375 3001 ft 159 kts 33°
2026-04-22 14:26 55.46509 12.40629 3011 ft 155 kts 34°
2026-04-22 14:26 55.47323 12.41881 3003 ft 156 kts 34°
2026-04-22 14:26 55.48148 12.43156 2934 ft 160 kts 34°
2026-04-22 14:27 55.48990 12.44465 2720 ft 162 kts 34°
2026-04-22 14:27 55.49832 12.45773 2500 ft 160 kts 34°
2026-04-22 14:27 55.50662 12.47065 2294 ft 157 kts 34°
2026-04-22 14:27 55.51475 12.48328 2091 ft 157 kts 34°
2026-04-22 14:28 55.52287 12.49591 1875 ft 150 kts 35°
2026-04-22 14:28 55.53036 12.50758 1708 ft 143 kts 33°
2026-04-22 14:28 55.53778 12.51906 1482 ft 143 kts 34°
2026-04-22 14:28 55.54514 12.53050 1291 ft 139 kts 35°
2026-04-22 14:29 55.55233 12.54168 1082 ft 136 kts 33°
2026-04-22 14:29 55.55944 12.55273 913 ft 137 kts 32°
2026-04-22 14:29 55.56676 12.56404 728 ft 143 kts 34°
2026-04-22 14:29 55.57404 12.57563 538 ft 138 kts 33°
2026-04-22 14:30 55.58113 12.58676 362 ft 135 kts 32°
2026-04-22 14:30 55.58833 12.59765 161 ft 138 kts 33°
2026-04-22 14:30 55.59557 12.60884 29 ft 133 kts 34°
2026-04-22 14:30 55.60184 12.61840 18 ft 103 kts 42°
2026-04-22 14:31 55.60631 12.62535 21 ft 68 kts 40°
2026-04-22 14:31 55.60954 12.63037 17 ft 57 kts 41°
2026-04-22 14:31 55.61126 12.63305 20 ft 12 kts 39°
2026-04-22 14:31 55.61208 12.63325 20 ft 12 kts 356°
2026-04-22 14:32 55.61300 12.63313 17 ft 14 kts 355°
2026-04-22 14:32 55.61390 12.63335 17 ft 13 kts 33°
2026-04-22 14:32 55.61459 12.63438 16 ft 13 kts 41°
2026-04-22 14:32 55.61526 12.63539 18 ft 12 kts 41°
2026-04-22 14:33 55.61590 12.63640 16 ft 12 kts 41°
2026-04-22 14:33 55.61653 12.63737 16 ft 12 kts 40°
2026-04-22 14:33 55.61714 12.63831 18 ft 12 kts 42°
2026-04-22 14:33 55.61773 12.63925 16 ft 11 kts 41°
2026-04-22 14:34 55.61831 12.64015 16 ft 11 kts 40°
2026-04-22 14:34 55.61892 12.64090 16 ft 11 kts 25°
2026-04-22 14:34 55.61958 12.64145 16 ft 10 kts 25°
2026-04-22 14:34 55.62022 12.64198 17 ft 10 kts 26°
2026-04-22 14:35 55.62084 12.64251 17 ft 10 kts 25°
2026-04-22 14:35 55.62145 12.64302 16 ft 10 kts 26°
2026-04-22 14:35 55.62208 12.64355 16 ft 11 kts 25°
2026-04-22 14:35 55.62278 12.64400 15 ft 11 kts 15°
2026-04-22 14:36 55.62349 12.64431 16 ft 10 kts 13°
2026-04-22 14:36 55.62394 12.64451 16 ft 10 kts
2026-04-22 14:36 55.62448 12.64384 16 ft 10 kts 310°
2026-04-22 14:36 55.62490 12.64289 16 ft 10 kts 303°
2026-04-22 14:37 55.62538 12.64160 16 ft 9 kts 302°
2026-04-22 14:37 55.62573 12.64066 17 ft 9 kts 303°
2026-04-22 14:37 55.62606 12.63973 19 ft 9 kts 302°
2026-04-22 14:37 55.62639 12.63884 16 ft 9 kts 303°
2026-04-22 14:38 55.62672 12.63852 16 ft 8 kts
2026-04-22 14:38 55.62722 12.63899 16 ft 8 kts 33°
2026-04-22 14:38 55.62770 12.63954 16 ft 8 kts 33°
2026-04-22 14:38 55.62812 12.64013 17 ft 8 kts 51°
2026-04-22 14:39 55.62836 12.64096 16 ft 7 kts 66°
2026-04-22 14:39 55.62854 12.64168 17 ft 4 kts 65°
2026-04-22 14:39 55.62856 12.64214 16 ft 4 kts 96°
2026-04-22 14:40 55.62853 12.64246 16 ft 0 kts 99°